Time,TemperatureF,DewpointF,PressureIn,WindDirection,WindDirectionDegrees,WindSpeedMPH,WindSpeedGustMPH,Humidity,HourlyPrecipIn,Conditions,Clouds,dailyrainin,SolarRadiationWatts/m^2,SoftwareType,DateUTC
2013-11-24 00:00:00,8.7,3.0,30.68,WNW,298,1.0,1.0,77,0.00,,,0.00,0,Wunderground v.1.15,2013-11-24 06:00:00,
2013-11-24 00:06:00,9.0,3.5,30.68,WNW,298,1.0,2.0,78,0.00,,,0.00,0,Wunderground v.1.15,2013-11-24 06:06:00,
2013-11-24 00:11:00,8.9,3.2,30.68,WNW,298,2.0,2.0,77,0.00,,,0.00,0,Wunderground v.1.15,2013-11-24 06:11:00,
2013-11-24 00:20:00,8.9,3.2,30.69,WNW,298,1.0,1.0,77,0.00,,,0.00,0,Wunderground v.1.15,2013-11-24 06:20:00,
2013-11-24 00:25:00,8.8,3.1,30.69,WNW,298,1.0,3.0,77,0.00,,,0.00,0,Wunderground v.1.15,2013-11-24 06:25:00,
2013-11-24 00:30:00,9.0,3.5,30.68,WNW,298,2.0,2.0,78,0.00,,,0.00,0,Wunderground v.1.15,2013-11-24 06:30:00,
2013-11-24 00:35:00,8.9,3.4,30.69,WNW,298,2.0,2.0,78,0.00,,,0.00,0,Wunderground v.1.15,2013-11-24 06:35:00,
2013-11-24 00:40:00,8.9,3.4,30.68,WNW,298,1.0,1.0,78,0.00,,,0.00,0,Wunderground v.1.15,2013-11-24 06:40:00,
2013-11-24 00:45:00,8.9,3.4,30.68,WNW,298,2.0,2.0,78,0.00,,,0.00,0,Wunderground v.1.15,2013-11-24 06:45:00,
2013-11-24 00:51:00,8.9,3.4,30.68,WNW,298,2.0,2.0,78,0.00,,,0.00,0,Wunderground v.1.15,2013-11-24 06:51:00,
2013-11-24 00:56:00,8.8,3.3,30.68,WNW,298,1.0,2.0,78,0.00,,,0.00,0,Wunderground v.1.15,2013-11-24 06:56:00,
2013-11-24 01:01:00,8.9,3.4,30.67,WNW,298,0.0,1.0,78,0.00,,,0.00,0,Wunderground v.1.15,2013-11-24 07:01:00,
2013-11-24 01:06:00,9.1,3.6,30.67,WNW,298,1.0,1.0,78,0.00,,,0.00,0,Wunderground v.1.15,2013-11-24 07:06:00,
2013-11-24 01:16:00,8.7,3.2,30.67,WNW,298,0.0,1.0,78,0.00,,,0.00,0,Wunderground v.1.15,2013-11-24 07:16:00,
2013-11-24 01:26:00,8.4,3.2,30.67,WNW,298,1.0,1.0,79,0.00,,,0.00,0,Wunderground v.1.15,2013-11-24 07:26:00,
2013-11-24 01:31:00,8.2,3.0,30.67,WNW,298,1.0,1.0,79,0.00,,,0.00,0,Wunderground v.1.15,2013-11-24 07:31:00,
2013-11-24 01:36:00,8.3,3.1,30.66,WNW,298,0.0,1.0,79,0.00,,,0.00,0,Wunderground v.1.15,2013-11-24 07:36:00,
2013-11-24 01:46:00,8.2,3.3,30.66,WNW,298,0.0,0.0,80,0.00,,,0.00,0,Wunderground v.1.15,2013-11-24 07:46:00,
2013-11-24 01:55:00,8.5,3.6,30.65,WNW,298,1.0,1.0,80,0.00,,,0.00,0,Wunderground v.1.15,2013-11-24 07:55:00,
2013-11-24 02:00:00,8.3,3.1,30.65,WNW,298,1.0,2.0,79,0.00,,,0.00,0,Wunderground v.1.15,2013-11-24 08:00:00,
2013-11-24 02:05:00,8.4,3.5,30.65,WNW,298,1.0,2.0,80,0.00,,,0.00,0,Wunderground v.1.15,2013-11-24 08:05:00,
2013-11-24 02:10:00,8.4,3.5,30.65,WNW,298,1.0,2.0,80,0.00,,,0.00,0,Wunderground v.1.15,2013-11-24 08:10:00,
2013-11-24 02:20:00,8.2,3.3,30.64,South,170,1.0,2.0,80,0.00,,,0.00,0,Wunderground v.1.15,2013-11-24 08:20:00,
2013-11-24 02:25:00,8.2,3.3,30.64,South,170,2.0,2.0,80,0.00,,,0.00,0,Wunderground v.1.15,2013-11-24 08:25:00,
2013-11-24 02:36:00,8.0,3.1,30.63,South,170,2.0,2.0,80,0.00,,,0.00,0,Wunderground v.1.15,2013-11-24 08:36:00,
2013-11-24 02:40:00,8.0,3.4,30.63,South,171,2.0,3.0,81,0.00,,,0.00,0,Wunderground v.1.15,2013-11-24 08:40:00,
2013-11-24 02:51:00,8.0,3.4,30.63,South,171,2.0,2.0,81,0.00,,,0.00,0,Wunderground v.1.15,2013-11-24 08:51:00,
2013-11-24 02:56:00,8.0,3.4,30.63,South,171,1.0,2.0,81,0.00,,,0.00,0,Wunderground v.1.15,2013-11-24 08:56:00,
2013-11-24 03:01:00,8.1,3.5,30.63,South,170,1.0,1.0,81,0.00,,,0.00,0,Wunderground v.1.15,2013-11-24 09:01:00,
2013-11-24 03:10:00,8.1,3.5,30.63,South,171,1.0,1.0,81,0.00,,,0.00,0,Wunderground v.1.15,2013-11-24 09:10:00,
2013-11-24 03:15:00,7.9,3.3,30.63,South,171,2.0,3.0,81,0.00,,,0.00,0,Wunderground v.1.15,2013-11-24 09:15:00,
2013-11-24 03:21:00,7.8,3.2,30.63,South,171,2.0,2.0,81,0.00,,,0.00,0,Wunderground v.1.15,2013-11-24 09:21:00,
2013-11-24 03:26:00,7.8,3.2,30.62,South,170,2.0,2.0,81,0.00,,,0.00,0,Wunderground v.1.15,2013-11-24 09:26:00,
2013-11-24 03:35:00,7.7,3.1,30.61,South,170,3.0,4.0,81,0.00,,,0.00,0,Wunderground v.1.15,2013-11-24 09:35:00,
2013-11-24 03:41:00,7.6,3.0,30.61,South,171,3.0,3.0,81,0.00,,,0.00,0,Wunderground v.1.15,2013-11-24 09:41:00,
2013-11-24 03:46:00,7.9,3.5,30.61,South,170,3.0,3.0,82,0.00,,,0.00,0,Wunderground v.1.15,2013-11-24 09:46:00,
2013-11-24 03:56:00,8.5,4.1,30.61,South,170,2.0,4.0,82,0.00,,,0.00,0,Wunderground v.1.15,2013-11-24 09:56:00,
2013-11-24 04:01:00,8.5,3.9,30.61,SE,141,3.0,3.0,81,0.00,,,0.00,0,Wunderground v.1.15,2013-11-24 10:01:00,
2013-11-24 04:10:00,8.5,3.9,30.60,SE,141,3.0,3.0,81,0.00,,,0.00,0,Wunderground v.1.15,2013-11-24 10:10:00,
2013-11-24 04:20:00,8.6,4.0,30.59,SSE,167,3.0,6.0,81,0.00,,,0.00,0,Wunderground v.1.15,2013-11-24 10:20:00,
2013-11-24 04:26:00,8.5,3.9,30.58,South,171,4.0,6.0,81,0.00,,,0.00,0,Wunderground v.1.15,2013-11-24 10:26:00,
2013-11-24 04:35:00,8.6,4.2,30.58,SSE,153,3.0,5.0,82,0.00,,,0.00,0,Wunderground v.1.15,2013-11-24 10:35:00,
2013-11-24 04:40:00,8.7,4.1,30.58,South,171,4.0,4.0,81,0.00,,,0.00,0,Wunderground v.1.15,2013-11-24 10:40:00,
2013-11-24 04:45:00,8.8,4.2,30.58,SSE,165,4.0,4.0,81,0.00,,,0.00,0,Wunderground v.1.15,2013-11-24 10:45:00,
2013-11-24 04:55:00,8.9,4.3,30.58,SE,139,3.0,4.0,81,0.00,,,0.00,0,Wunderground v.1.15,2013-11-24 10:55:00,
2013-11-24 05:00:00,8.8,4.2,30.57,SE,139,2.0,2.0,81,0.00,,,0.00,0,Wunderground v.1.15,2013-11-24 11:00:00,
2013-11-24 05:05:00,8.9,4.3,30.57,SE,138,2.0,5.0,81,0.00,,,0.00,0,Wunderground v.1.15,2013-11-24 11:05:00,
2013-11-24 05:15:00,9.1,4.2,30.57,SSE,149,3.0,3.0,80,0.00,,,0.00,0,Wunderground v.1.15,2013-11-24 11:15:00,
2013-11-24 05:20:00,9.2,4.0,30.56,SSE,158,3.0,3.0,79,0.00,,,0.00,0,Wunderground v.1.15,2013-11-24 11:20:00,
2013-11-24 05:25:00,9.2,4.0,30.57,SSE,148,3.0,5.0,79,0.00,,,0.00,0,Wunderground v.1.15,2013-11-24 11:25:00,
2013-11-24 05:31:00,9.3,4.1,30.57,South,172,3.0,4.0,79,0.00,,,0.00,0,Wunderground v.1.15,2013-11-24 11:31:00,
2013-11-24 05:41:00,9.3,3.8,30.56,SSE,158,3.0,3.0,78,0.00,,,0.00,0,Wunderground v.1.15,2013-11-24 11:41:00,
2013-11-24 05:45:00,9.4,4.2,30.56,South,172,3.0,4.0,79,0.00,,,0.00,0,Wunderground v.1.15,2013-11-24 11:45:00,
2013-11-24 05:51:00,9.5,4.3,30.56,SSE,150,3.0,3.0,79,0.00,,,0.00,0,Wunderground v.1.15,2013-11-24 11:51:00,
2013-11-24 05:56:00,9.6,4.4,30.56,SSE,162,3.0,3.0,79,0.00,,,0.00,0,Wunderground v.1.15,2013-11-24 11:56:00,
2013-11-24 06:01:00,9.7,4.2,30.56,South,187,3.0,3.0,78,0.00,,,0.00,0,Wunderground v.1.15,2013-11-24 12:01:00,
2013-11-24 06:06:00,9.8,4.3,30.56,South,185,3.0,3.0,78,0.00,,,0.00,0,Wunderground v.1.15,2013-11-24 12:06:00,
2013-11-24 06:11:00,9.8,4.3,30.56,South,178,3.0,3.0,78,0.00,,,0.00,0,Wunderground v.1.15,2013-11-24 12:11:00,
2013-11-24 06:21:00,9.9,4.1,30.55,SE,141,5.0,7.0,77,0.00,,,0.00,0,Wunderground v.1.15,2013-11-24 12:21:00,
2013-11-24 06:26:00,10.0,3.9,30.55,SSE,162,5.0,7.0,76,0.00,,,0.00,0,Wunderground v.1.15,2013-11-24 12:26:00,
2013-11-24 06:31:00,10.2,4.1,30.54,SSE,163,5.0,7.0,76,0.00,,,0.00,0,Wunderground v.1.15,2013-11-24 12:31:00,
2013-11-24 06:36:00,10.4,3.8,30.54,SSE,150,6.0,9.0,74,0.00,,,0.00,0,Wunderground v.1.15,2013-11-24 12:36:00,
2013-11-24 06:41:00,10.4,3.8,30.54,SSE,167,5.0,5.0,74,0.00,,,0.00,0,Wunderground v.1.15,2013-11-24 12:41:00,
2013-11-24 06:51:00,10.4,3.8,30.53,South,180,6.0,6.0,74,0.00,,,0.00,0,Wunderground v.1.15,2013-11-24 12:51:00,
2013-11-24 06:56:00,10.4,3.8,30.52,South,178,6.0,6.0,74,0.00,,,0.00,0,Wunderground v.1.15,2013-11-24 12:56:00,
2013-11-24 07:01:00,10.3,3.7,30.52,SSE,164,6.0,6.0,74,0.00,,,0.00,0,Wunderground v.1.15,2013-11-24 13:01:00,
2013-11-24 07:06:00,10.4,3.8,30.52,South,177,6.0,6.0,74,0.00,,,0.00,0,Wunderground v.1.15,2013-11-24 13:06:00,
2013-11-24 07:15:00,10.3,3.7,30.52,SSE,161,5.0,6.0,74,0.00,,,0.00,0,Wunderground v.1.15,2013-11-24 13:15:00,
2013-11-24 07:20:00,10.3,3.7,30.52,South,180,5.0,5.0,74,0.00,,,0.00,5,Wunderground v.1.15,2013-11-24 13:20:00,
2013-11-24 07:25:00,10.3,3.7,30.52,SSE,168,5.0,10.0,74,0.00,,,0.00,7,Wunderground v.1.15,2013-11-24 13:25:00,
2013-11-24 07:30:00,10.4,3.8,30.51,SSE,154,5.0,5.0,74,0.00,,,0.00,11,Wunderground v.1.15,2013-11-24 13:30:00,
2013-11-24 07:35:00,10.5,3.8,30.51,SE,140,5.0,5.0,74,0.00,,,0.00,12,Wunderground v.1.15,2013-11-24 13:35:00,
2013-11-24 07:41:00,10.7,4.0,30.51,South,179,5.0,6.0,74,0.00,,,0.00,16,Wunderground v.1.15,2013-11-24 13:41:00,
2013-11-24 07:46:00,10.9,4.2,30.51,SSE,167,5.0,6.0,74,0.00,,,0.00,18,Wunderground v.1.15,2013-11-24 13:46:00,
2013-11-24 07:55:00,11.4,4.4,30.50,SSE,159,6.0,8.0,73,0.00,,,0.00,30,Wunderground v.1.15,2013-11-24 13:55:00,
2013-11-24 08:01:00,11.6,4.6,30.50,South,178,6.0,7.0,73,0.00,,,0.00,39,Wunderground v.1.15,2013-11-24 14:01:00,
2013-11-24 08:06:00,11.9,4.6,30.50,SSE,168,7.0,7.0,72,0.00,,,0.00,49,Wunderground v.1.15,2013-11-24 14:06:00,
2013-11-24 08:11:00,12.2,4.9,30.50,SSE,168,6.0,6.0,72,0.00,,,0.00,56,Wunderground v.1.15,2013-11-24 14:11:00,
2013-11-24 08:20:00,12.7,5.1,30.49,SSE,166,7.0,7.0,71,0.00,,,0.00,54,Wunderground v.1.15,2013-11-24 14:20:00,
2013-11-24 08:25:00,13.1,5.1,30.49,SSE,159,7.0,7.0,70,0.00,,,0.00,79,Wunderground v.1.15,2013-11-24 14:25:00,
2013-11-24 08:35:00,13.5,5.2,30.48,South,170,8.0,9.0,69,0.00,,,0.00,130,Wunderground v.1.15,2013-11-24 14:35:00,
2013-11-24 08:40:00,13.8,5.5,30.48,South,175,8.0,8.0,69,0.00,,,0.00,146,Wunderground v.1.15,2013-11-24 14:40:00,
2013-11-24 08:46:00,14.1,5.5,30.48,SE,136,8.0,11.0,68,0.00,,,0.00,163,Wunderground v.1.15,2013-11-24 14:46:00,
2013-11-24 08:55:00,14.6,5.6,30.47,South,181,9.0,11.0,67,0.00,,,0.00,195,Wunderground v.1.15,2013-11-24 14:55:00,
2013-11-24 09:00:00,14.8,5.5,30.47,South,172,9.0,11.0,66,0.00,,,0.00,211,Wunderground v.1.15,2013-11-24 15:00:00,
2013-11-24 09:05:00,15.2,5.9,30.46,SSE,159,8.0,11.0,66,0.00,,,0.00,229,Wunderground v.1.15,2013-11-24 15:05:00,
2013-11-24 09:11:00,15.7,6.3,30.46,South,184,8.0,8.0,66,0.00,,,0.00,241,Wunderground v.1.15,2013-11-24 15:11:00,
2013-11-24 09:20:00,16.2,6.5,30.45,SSE,163,8.0,8.0,65,0.00,,,0.00,255,Wunderground v.1.15,2013-11-24 15:20:00,
2013-11-24 09:25:00,16.4,6.3,30.45,SSE,148,10.0,12.0,64,0.00,,,0.00,257,Wunderground v.1.15,2013-11-24 15:25:00,
2013-11-24 09:31:00,16.8,6.4,30.44,South,188,10.0,10.0,63,0.00,,,0.00,253,Wunderground v.1.15,2013-11-24 15:31:00,
2013-11-24 09:36:00,17.2,6.4,30.44,South,191,9.0,10.0,62,0.00,,,0.00,244,Wunderground v.1.15,2013-11-24 15:36:00,
2013-11-24 09:45:00,18.0,7.2,30.43,SSE,154,9.0,10.0,62,0.00,,,0.00,221,Wunderground v.1.15,2013-11-24 15:45:00,
2013-11-24 09:51:00,18.1,6.5,30.43,SSW,201,10.0,10.0,60,0.00,,,0.00,209,Wunderground v.1.15,2013-11-24 15:51:00,
2013-11-24 10:01:00,18.9,6.9,30.42,South,181,10.0,13.0,59,0.00,,,0.00,199,Wunderground v.1.15,2013-11-24 16:01:00,
2013-11-24 10:06:00,19.1,6.7,30.41,South,183,10.0,15.0,58,0.00,,,0.00,202,Wunderground v.1.15,2013-11-24 16:06:00,
2013-11-24 10:15:00,19.8,7.4,30.40,South,172,10.0,14.0,58,0.00,,,0.00,232,Wunderground v.1.15,2013-11-24 16:15:00,
2013-11-24 10:20:00,20.3,7.5,30.39,SE,137,10.0,14.0,57,0.00,,,0.00,253,Wunderground v.1.15,2013-11-24 16:20:00,
2013-11-24 10:25:00,20.4,7.6,30.38,SSE,165,11.0,14.0,57,0.00,,,0.00,288,Wunderground v.1.15,2013-11-24 16:25:00,
2013-11-24 10:30:00,20.8,7.9,30.38,SSE,167,11.0,11.0,57,0.00,,,0.00,329,Wunderground v.1.15,2013-11-24 16:30:00,
2013-11-24 10:35:00,21.0,7.7,30.37,SSW,205,11.0,11.0,56,0.00,,,0.00,360,Wunderground v.1.15,2013-11-24 16:35:00,
2013-11-24 10:41:00,21.2,7.9,30.37,SE,143,11.0,13.0,56,0.00,,,0.00,397,Wunderground v.1.15,2013-11-24 16:41:00,
2013-11-24 10:46:00,21.4,8.1,30.36,South,183,11.0,13.0,56,0.00,,,0.00,427,Wunderground v.1.15,2013-11-24 16:46:00,
2013-11-24 10:51:00,21.8,8.5,30.36,SW,226,12.0,12.0,56,0.00,,,0.00,448,Wunderground v.1.15,2013-11-24 16:51:00,
2013-11-24 11:01:00,22.5,8.7,30.35,SSW,193,12.0,12.0,55,0.00,,,0.00,473,Wunderground v.1.15,2013-11-24 17:01:00,
2013-11-24 11:11:00,22.6,8.8,30.33,SSW,208,12.0,16.0,55,0.00,,,0.00,483,Wunderground v.1.15,2013-11-24 17:11:00,
2013-11-24 11:16:00,22.7,8.9,30.33,South,179,15.0,18.0,55,0.00,,,0.00,489,Wunderground v.1.15,2013-11-24 17:16:00,
2013-11-24 11:21:00,23.0,9.2,30.32,South,174,15.0,18.0,55,0.00,,,0.00,492,Wunderground v.1.15,2013-11-24 17:21:00,
2013-11-24 11:30:00,23.5,9.3,30.32,SW,226,13.0,25.0,54,0.00,,,0.00,497,Wunderground v.1.15,2013-11-24 17:30:00,
2013-11-24 11:36:00,23.9,9.6,30.31,SSE,168,13.0,25.0,54,0.00,,,0.00,499,Wunderground v.1.15,2013-11-24 17:36:00,
2013-11-24 11:41:00,24.6,10.3,30.31,SSE,149,12.0,25.0,54,0.00,,,0.00,503,Wunderground v.1.15,2013-11-24 17:41:00,
2013-11-24 11:46:00,24.6,10.3,30.30,South,186,12.0,25.0,54,0.00,,,0.00,503,Wunderground v.1.15,2013-11-24 17:46:00,
2013-11-24 11:55:00,25.1,11.2,30.29,South,171,13.0,18.0,55,0.00,,,0.00,503,Wunderground v.1.15,2013-11-24 17:55:00,
2013-11-24 12:01:00,25.2,10.9,30.28,SSE,147,12.0,12.0,54,0.00,,,0.00,468,Wunderground v.1.15,2013-11-24 18:01:00,
2013-11-24 12:06:00,25.3,11.0,30.28,South,186,13.0,15.0,54,0.00,,,0.00,410,Wunderground v.1.15,2013-11-24 18:06:00,
2013-11-24 12:11:00,25.5,11.1,30.28,SSE,160,13.0,14.0,54,0.00,,,0.00,329,Wunderground v.1.15,2013-11-24 18:11:00,
2013-11-24 12:16:00,25.7,11.3,30.27,South,191,13.0,14.0,54,0.00,,,0.00,267,Wunderground v.1.15,2013-11-24 18:16:00,
2013-11-24 12:21:00,26.0,11.6,30.27,SSE,165,13.0,13.0,54,0.00,,,0.00,255,Wunderground v.1.15,2013-11-24 18:21:00,
2013-11-24 12:30:00,26.8,11.9,30.26,South,171,11.0,11.0,53,0.00,,,0.00,362,Wunderground v.1.15,2013-11-24 18:30:00,
2013-11-24 12:36:00,26.9,12.5,30.25,South,173,11.0,11.0,54,0.00,,,0.00,427,Wunderground v.1.15,2013-11-24 18:36:00,
2013-11-24 12:41:00,26.9,12.5,30.25,South,184,12.0,12.0,54,0.00,,,0.00,473,Wunderground v.1.15,2013-11-24 18:41:00,
2013-11-24 12:46:00,27.0,12.5,30.25,South,189,14.0,14.0,54,0.00,,,0.00,487,Wunderground v.1.15,2013-11-24 18:46:00,
2013-11-24 12:55:00,28.1,13.1,30.24,South,181,10.0,13.0,53,0.00,,,0.00,480,Wunderground v.1.15,2013-11-24 18:55:00,
2013-11-24 13:00:00,27.9,13.0,30.23,SSE,166,11.0,12.0,53,0.00,,,0.00,476,Wunderground v.1.15,2013-11-24 19:00:00,
2013-11-24 13:05:00,28.1,13.1,30.23,SSW,199,12.0,12.0,53,0.00,,,0.00,468,Wunderground v.1.15,2013-11-24 19:05:00,
2013-11-24 13:10:00,28.5,13.5,30.22,South,174,11.0,16.0,53,0.00,,,0.00,462,Wunderground v.1.15,2013-11-24 19:10:00,
2013-11-24 13:16:00,28.3,13.3,30.22,South,186,12.0,17.0,53,0.00,,,0.00,454,Wunderground v.1.15,2013-11-24 19:16:00,
2013-11-24 13:21:00,28.3,13.3,30.21,SW,216,14.0,27.0,53,0.00,,,0.00,450,Wunderground v.1.15,2013-11-24 19:21:00,
2013-11-24 13:26:00,28.3,13.8,30.20,South,174,14.0,27.0,54,0.00,,,0.00,443,Wunderground v.1.15,2013-11-24 19:26:00,
2013-11-24 13:35:00,28.7,13.7,30.19,SE,145,12.0,12.0,53,0.00,,,0.00,427,Wunderground v.1.15,2013-11-24 19:35:00,
2013-11-24 13:41:00,28.8,13.8,30.19,South,177,13.0,13.0,53,0.00,,,0.00,418,Wunderground v.1.15,2013-11-24 19:41:00,
2013-11-24 13:46:00,28.5,13.5,30.19,South,187,14.0,14.0,53,0.00,,,0.00,410,Wunderground v.1.15,2013-11-24 19:46:00,
2013-11-24 13:55:00,29.3,14.3,30.18,SW,222,12.0,28.0,53,0.00,,,0.00,392,Wunderground v.1.15,2013-11-24 19:55:00,
2013-11-24 14:01:00,28.9,13.9,30.18,South,180,14.0,14.0,53,0.00,,,0.00,380,Wunderground v.1.15,2013-11-24 20:01:00,
2013-11-24 14:06:00,29.2,14.2,30.18,SSE,165,15.0,15.0,53,0.00,,,0.00,367,Wunderground v.1.15,2013-11-24 20:06:00,
2013-11-24 14:16:00,29.3,14.3,30.17,SSE,158,14.0,17.0,53,0.00,,,0.00,341,Wunderground v.1.15,2013-11-24 20:16:00,
2013-11-24 14:26:00,29.8,14.7,30.17,SSE,160,13.0,20.0,53,0.00,,,0.00,315,Wunderground v.1.15,2013-11-24 20:26:00,
2013-11-24 14:31:00,30.3,14.8,30.17,SSW,207,11.0,11.0,52,0.00,,,0.00,295,Wunderground v.1.15,2013-11-24 20:31:00,
2013-11-24 14:41:00,30.3,14.8,30.16,SSE,162,11.0,16.0,52,0.00,,,0.00,267,Wunderground v.1.15,2013-11-24 20:41:00,
2013-11-24 14:46:00,30.1,15.0,30.16,SSE,163,13.0,17.0,53,0.00,,,0.00,251,Wunderground v.1.15,2013-11-24 20:46:00,
2013-11-24 14:55:00,30.6,15.0,30.15,South,172,11.0,15.0,52,0.00,,,0.00,220,Wunderground v.1.15,2013-11-24 20:55:00,
2013-11-24 15:01:00,30.5,14.9,30.15,South,189,12.0,12.0,52,0.00,,,0.00,202,Wunderground v.1.15,2013-11-24 21:01:00,
2013-11-24 15:11:00,30.7,15.1,30.14,SW,214,10.0,18.0,52,0.00,,,0.00,169,Wunderground v.1.15,2013-11-24 21:11:00,
2013-11-24 15:16:00,30.8,15.2,30.14,SSW,199,11.0,18.0,52,0.00,,,0.00,151,Wunderground v.1.15,2013-11-24 21:16:00,
2013-11-24 15:26:00,30.7,15.1,30.13,SSW,192,11.0,11.0,52,0.00,,,0.00,118,Wunderground v.1.15,2013-11-24 21:26:00,
2013-11-24 15:31:00,30.7,15.1,30.13,South,186,12.0,12.0,52,0.00,,,0.00,102,Wunderground v.1.15,2013-11-24 21:31:00,
2013-11-24 15:41:00,30.8,15.2,30.13,SW,220,12.0,12.0,52,0.00,,,0.00,77,Wunderground v.1.15,2013-11-24 21:41:00,
2013-11-24 15:46:00,30.8,15.2,30.12,SE,143,11.0,12.0,52,0.00,,,0.00,65,Wunderground v.1.15,2013-11-24 21:46:00,
2013-11-24 15:56:00,30.6,15.5,30.12,SSW,195,11.0,19.0,53,0.00,,,0.00,39,Wunderground v.1.15,2013-11-24 21:56:00,
2013-11-24 16:06:00,30.4,15.3,30.12,SSE,151,11.0,11.0,53,0.00,,,0.00,25,Wunderground v.1.15,2013-11-24 22:06:00,
2013-11-24 16:11:00,30.3,15.6,30.12,SSE,166,12.0,12.0,54,0.00,,,0.00,23,Wunderground v.1.15,2013-11-24 22:11:00,
2013-11-24 16:21:00,30.2,15.5,30.11,South,178,11.0,11.0,54,0.00,,,0.00,18,Wunderground v.1.15,2013-11-24 22:21:00,
2013-11-24 16:30:00,30.1,15.4,30.10,South,188,12.0,12.0,54,0.00,,,0.00,12,Wunderground v.1.15,2013-11-24 22:30:00,
2013-11-24 16:36:00,30.0,15.8,30.10,SSW,199,12.0,13.0,55,0.00,,,0.00,9,Wunderground v.1.15,2013-11-24 22:36:00,
2013-11-24 16:41:00,29.9,15.7,30.10,South,186,11.0,16.0,55,0.00,,,0.00,7,Wunderground v.1.15,2013-11-24 22:41:00,
2013-11-24 16:51:00,29.7,15.9,30.09,South,191,11.0,11.0,56,0.00,,,0.00,5,Wunderground v.1.15,2013-11-24 22:51:00,
2013-11-24 16:56:00,29.5,15.7,30.09,SE,135,11.0,11.0,56,0.00,,,0.00,0,Wunderground v.1.15,2013-11-24 22:56:00,
2013-11-24 17:05:00,29.3,15.9,30.09,South,176,10.0,11.0,57,0.00,,,0.00,0,Wunderground v.1.15,2013-11-24 23:05:00,
2013-11-24 17:11:00,29.2,15.8,30.09,South,173,9.0,12.0,57,0.00,,,0.00,0,Wunderground v.1.15,2013-11-24 23:11:00,
2013-11-24 17:16:00,29.2,15.8,30.09,SSE,166,10.0,12.0,57,0.00,,,0.00,0,Wunderground v.1.15,2013-11-24 23:16:00,
2013-11-24 17:26:00,29.0,16.1,30.08,SSW,192,10.0,15.0,58,0.00,,,0.00,0,Wunderground v.1.15,2013-11-24 23:26:00,
2013-11-24 17:36:00,29.0,16.1,30.07,SSE,151,12.0,16.0,58,0.00,,,0.00,0,Wunderground v.1.15,2013-11-24 23:36:00,
2013-11-24 17:41:00,28.9,16.0,30.05,SSE,164,13.0,14.0,58,0.00,,,0.00,0,Wunderground v.1.15,2013-11-24 23:41:00,
2013-11-24 17:51:00,28.8,16.3,30.05,SSE,149,14.0,14.0,59,0.00,,,0.00,0,Wunderground v.1.15,2013-11-24 23:51:00,
2013-11-24 17:56:00,28.9,16.0,30.05,SSE,147,14.0,16.0,58,0.00,,,0.00,0,Wunderground v.1.15,2013-11-24 23:56:00,
2013-11-24 18:06:00,28.7,16.2,30.03,SSW,193,14.0,19.0,59,0.00,,,0.00,0,Wunderground v.1.15,2013-11-25 00:06:00,
2013-11-24 18:11:00,28.7,16.2,30.03,South,172,15.0,15.0,59,0.00,,,0.00,0,Wunderground v.1.15,2013-11-25 00:11:00,
2013-11-24 18:21:00,28.6,16.1,30.03,South,182,12.0,12.0,59,0.00,,,0.00,0,Wunderground v.1.15,2013-11-25 00:21:00,
2013-11-24 18:30:00,28.6,16.1,30.03,SSE,166,13.0,13.0,59,0.00,,,0.00,0,Wunderground v.1.15,2013-11-25 00:30:00,
2013-11-24 18:36:00,28.6,16.5,30.03,South,189,11.0,13.0,60,0.00,,,0.00,0,Wunderground v.1.15,2013-11-25 00:36:00,
2013-11-24 18:46:00,28.7,16.6,30.03,SSE,153,11.0,11.0,60,0.00,,,0.00,0,Wunderground v.1.15,2013-11-25 00:46:00,
2013-11-24 18:55:00,28.6,16.5,30.02,South,171,11.0,17.0,60,0.00,,,0.00,0,Wunderground v.1.15,2013-11-25 00:55:00,
2013-11-24 19:01:00,28.6,16.5,30.03,SSW,194,11.0,11.0,60,0.00,,,0.00,0,Wunderground v.1.15,2013-11-25 01:01:00,
2013-11-24 19:10:00,28.4,16.3,30.02,South,179,11.0,13.0,60,0.00,,,0.00,0,Wunderground v.1.15,2013-11-25 01:10:00,
2013-11-24 19:16:00,28.4,16.7,30.01,SSW,196,11.0,13.0,61,0.00,,,0.00,0,Wunderground v.1.15,2013-11-25 01:16:00,
2013-11-24 19:26:00,28.2,16.5,30.01,South,184,10.0,11.0,61,0.00,,,0.00,0,Wunderground v.1.15,2013-11-25 01:26:00,
2013-11-24 19:31:00,28.1,16.4,30.01,SSE,151,10.0,10.0,61,0.00,,,0.00,0,Wunderground v.1.15,2013-11-25 01:31:00,
2013-11-24 19:41:00,28.0,16.6,30.01,South,176,10.0,12.0,62,0.00,,,0.00,0,Wunderground v.1.15,2013-11-25 01:41:00,
2013-11-24 19:50:00,28.0,16.6,30.01,SSW,201,9.0,15.0,62,0.00,,,0.00,0,Wunderground v.1.15,2013-11-25 01:50:00,
2013-11-24 19:56:00,28.1,16.7,30.01,South,185,10.0,15.0,62,0.00,,,0.00,0,Wunderground v.1.15,2013-11-25 01:56:00,
2013-11-24 20:01:00,28.1,16.4,30.00,SSE,162,11.0,11.0,61,0.00,,,0.00,0,Wunderground v.1.15,2013-11-25 02:01:00,
2013-11-24 20:11:00,27.9,16.6,30.00,SSW,213,11.0,16.0,62,0.00,,,0.00,0,Wunderground v.1.15,2013-11-25 02:11:00,
2013-11-24 20:16:00,27.9,16.6,30.00,SW,216,11.0,16.0,62,0.00,,,0.00,0,Wunderground v.1.15,2013-11-25 02:16:00,
2013-11-24 20:26:00,27.7,16.4,29.99,SW,228,10.0,13.0,62,0.00,,,0.00,0,Wunderground v.1.15,2013-11-25 02:26:00,
2013-11-24 20:36:00,27.5,16.5,29.99,South,185,9.0,10.0,63,0.00,,,0.00,0,Wunderground v.1.15,2013-11-25 02:36:00,
2013-11-24 20:41:00,27.5,16.5,29.99,SSW,194,9.0,9.0,63,0.00,,,0.00,0,Wunderground v.1.15,2013-11-25 02:41:00,
2013-11-24 20:51:00,27.4,16.4,29.99,SSE,166,10.0,17.0,63,0.00,,,0.00,0,Wunderground v.1.15,2013-11-25 02:51:00,
2013-11-24 21:00:00,27.3,16.4,30.00,SSW,197,10.0,10.0,63,0.00,,,0.00,0,Wunderground v.1.15,2013-11-25 03:00:00,
2013-11-24 21:06:00,27.3,16.4,30.00,SW,223,10.0,13.0,63,0.00,,,0.00,0,Wunderground v.1.15,2013-11-25 03:06:00,
2013-11-24 21:11:00,27.3,16.4,29.99,SSW,206,11.0,11.0,63,0.00,,,0.00,0,Wunderground v.1.15,2013-11-25 03:11:00,
2013-11-24 21:21:00,27.2,16.3,29.99,SSE,168,9.0,9.0,63,0.00,,,0.00,0,Wunderground v.1.15,2013-11-25 03:21:00,
2013-11-24 21:26:00,27.3,16.4,29.99,South,183,10.0,14.0,63,0.00,,,0.00,0,Wunderground v.1.15,2013-11-25 03:26:00,
2013-11-24 21:31:00,27.2,16.3,29.99,SSW,203,10.0,10.0,63,0.00,,,0.00,0,Wunderground v.1.15,2013-11-25 03:31:00,
2013-11-24 21:41:00,27.2,16.6,29.98,South,183,10.0,10.0,64,0.00,,,0.00,0,Wunderground v.1.15,2013-11-25 03:41:00,
2013-11-24 21:51:00,27.4,16.8,29.97,SSW,197,11.0,11.0,64,0.00,,,0.00,0,Wunderground v.1.15,2013-11-25 03:51:00,
2013-11-24 21:56:00,27.4,16.8,29.98,South,189,10.0,11.0,64,0.00,,,0.00,0,Wunderground v.1.15,2013-11-25 03:56:00,
2013-11-24 22:06:00,27.5,16.9,29.97,SSW,200,9.0,16.0,64,0.00,,,0.00,0,Wunderground v.1.15,2013-11-25 04:06:00,
2013-11-24 22:15:00,27.5,16.9,29.96,SSW,201,8.0,9.0,64,0.00,,,0.00,0,Wunderground v.1.15,2013-11-25 04:15:00,
2013-11-24 22:21:00,27.6,17.0,29.96,SSW,194,9.0,13.0,64,0.00,,,0.00,0,Wunderground v.1.15,2013-11-25 04:21:00,
2013-11-24 22:31:00,27.9,17.3,29.96,South,169,9.0,14.0,64,0.00,,,0.00,0,Wunderground v.1.15,2013-11-25 04:31:00,
2013-11-24 22:40:00,28.1,17.5,29.95,ESE,116,10.0,10.0,64,0.00,,,0.00,0,Wunderground v.1.15,2013-11-25 04:40:00,
2013-11-24 22:46:00,28.1,17.5,29.95,SW,221,11.0,16.0,64,0.00,,,0.00,0,Wunderground v.1.15,2013-11-25 04:46:00,
2013-11-24 22:55:00,28.3,17.7,29.95,SSW,195,10.0,11.0,64,0.00,,,0.00,0,Wunderground v.1.15,2013-11-25 04:55:00,
2013-11-24 23:01:00,28.4,17.8,29.95,SW,221,9.0,9.0,64,0.00,,,0.00,0,Wunderground v.1.15,2013-11-25 05:01:00,
2013-11-24 23:10:00,28.6,17.6,29.94,South,187,11.0,11.0,63,0.00,,,0.00,0,Wunderground v.1.15,2013-11-25 05:10:00,
2013-11-24 23:15:00,28.7,18.1,29.94,SW,232,11.0,21.0,64,0.00,,,0.00,0,Wunderground v.1.15,2013-11-25 05:15:00,
2013-11-24 23:21:00,28.9,17.9,29.94,SW,232,11.0,11.0,63,0.00,,,0.00,0,Wunderground v.1.15,2013-11-25 05:21:00,
2013-11-24 23:31:00,29.1,18.1,29.93,SSW,204,13.0,13.0,63,0.00,,,0.00,0,Wunderground v.1.15,2013-11-25 05:31:00,
2013-11-24 23:35:00,29.0,18.0,29.93,SSW,208,12.0,13.0,63,0.00,,,0.00,0,Wunderground v.1.15,2013-11-25 05:35:00,
2013-11-24 23:40:00,29.0,18.0,29.93,SSW,197,11.0,13.0,63,0.00,,,0.00,0,Wunderground v.1.15,2013-11-25 05:40:00,
2013-11-24 23:46:00,29.0,18.0,29.93,SSE,147,11.0,13.0,63,0.00,,,0.00,0,Wunderground v.1.15,2013-11-25 05:46:00,
2013-11-24 23:55:00,29.1,18.1,29.92,SSW,195,10.0,11.0,63,0.00,,,0.00,0,Wunderground v.1.15,2013-11-25 05:55:00,